TimeCST,TemperatureF,Dew PointF,Humidity,Sea Level PressureIn,VisibilityMPH,Wind Direction,Wind SpeedMPH,Gust SpeedMPH,PrecipitationIn,Events,Conditions,WindDirDegrees,DateUTC
12:15 AM,21.2,21.2,100,29.89,10.0,SSW,8.1,-,N/A,,Overcast,200,2013-02-10 06:15:00
12:35 AM,21.2,21.2,100,29.88,10.0,SSW,6.9,-,N/A,,Overcast,210,2013-02-10 06:35:00
12:55 AM,21.2,21.2,100,29.87,10.0,SSW,6.9,-,N/A,,Overcast,210,2013-02-10 06:55:00
1:15 AM,21.2,21.2,100,29.87,10.0,SW,3.5,-,N/A,,Overcast,220,2013-02-10 07:15:00
1:35 AM,21.2,21.2,100,29.87,10.0,SW,3.5,-,N/A,,Overcast,220,2013-02-10 07:35:00
1:55 AM,21.2,21.2,100,29.87,10.0,SW,6.9,-,N/A,,Overcast,220,2013-02-10 07:55:00
2:15 AM,21.2,21.2,100,29.87,-9999.0,WSW,6.9,-,N/A,,Overcast,240,2013-02-10 08:15:00
2:35 AM,21.2,21.2,100,29.85,-9999.0,West,5.8,-,N/A,,Unknown,260,2013-02-10 08:35:00
2:55 AM,19.4,19.4,100,29.84,10.0,WNW,3.5,-,N/A,,Overcast,300,2013-02-10 08:55:00
3:15 AM,19.4,19.4,100,29.84,10.0,Calm,Calm,-,N/A,,Scattered Clouds,0,2013-02-10 09:15:00
3:35 AM,17.6,17.6,100,29.83,10.0,NNE,3.5,-,N/A,,Mostly Cloudy,20,2013-02-10 09:35:00
3:55 AM,19.4,19.4,100,29.83,10.0,Calm,Calm,-,N/A,,Overcast,0,2013-02-10 09:55:00
4:15 AM,19.4,19.4,100,29.83,10.0,NE,3.5,-,N/A,,Overcast,50,2013-02-10 10:15:00
4:35 AM,19.4,19.4,100,29.83,10.0,NE,4.6,-,N/A,,Overcast,50,2013-02-10 10:35:00
4:55 AM,21.2,21.2,100,29.83,10.0,NE,5.8,-,N/A,,Overcast,40,2013-02-10 10:55:00
5:15 AM,21.2,21.2,100,29.84,10.0,NNE,6.9,-,N/A,,Overcast,30,2013-02-10 11:15:00
5:35 AM,19.4,19.4,100,29.84,10.0,NNE,5.8,-,N/A,,Overcast,30,2013-02-10 11:35:00
5:55 AM,19.4,19.4,100,29.84,10.0,NE,5.8,-,N/A,,Overcast,40,2013-02-10 11:55:00
6:15 AM,19.4,19.4,100,29.84,10.0,NNE,4.6,-,N/A,,Overcast,30,2013-02-10 12:15:00
6:35 AM,19.4,19.4,100,29.84,10.0,NNE,4.6,-,N/A,,Overcast,20,2013-02-10 12:35:00
6:55 AM,19.4,19.4,100,29.85,10.0,North,3.5,-,N/A,,Overcast,360,2013-02-10 12:55:00
7:15 AM,19.4,19.4,100,29.85,10.0,NNW,3.5,-,N/A,,Overcast,340,2013-02-10 13:15:00
7:35 AM,19.4,19.4,100,29.85,10.0,Calm,Calm,-,N/A,,Overcast,0,2013-02-10 13:35:00
7:55 AM,19.4,19.4,100,29.85,10.0,Calm,Calm,-,N/A,,Overcast,0,2013-02-10 13:55:00
8:15 AM,19.4,19.4,100,29.85,6.0,NNW,5.8,-,N/A,,Overcast,330,2013-02-10 14:15:00
8:35 AM,19.4,19.4,100,29.84,6.0,NNW,6.9,-,N/A,,Overcast,340,2013-02-10 14:35:00
8:55 AM,19.4,19.4,100,29.83,5.0,NNW,9.2,-,N/A,,Overcast,340,2013-02-10 14:55:00
9:15 AM,19.4,19.4,100,29.83,4.0,NNW,6.9,-,N/A,,Overcast,340,2013-02-10 15:15:00
9:35 AM,21.2,21.2,100,29.83,3.0,North,6.9,-,N/A,,Overcast,350,2013-02-10 15:35:00
9:55 AM,21.2,21.2,100,29.83,3.0,North,8.1,-,N/A,,Overcast,360,2013-02-10 15:55:00
10:15 AM,21.2,21.2,100,29.83,3.0,North,9.2,-,N/A,,Overcast,350,2013-02-10 16:15:00
10:35 AM,21.2,21.2,100,29.83,3.0,North,10.4,-,N/A,,Overcast,350,2013-02-10 16:35:00
10:55 AM,19.4,19.4,100,29.82,3.0,North,11.5,-,N/A,,Overcast,350,2013-02-10 16:55:00
11:15 AM,19.4,19.4,100,29.82,3.0,North,12.7,-,N/A,,Overcast,350,2013-02-10 17:15:00
11:35 AM,19.4,19.4,100,29.83,3.0,North,11.5,-,N/A,,Overcast,350,2013-02-10 17:35:00
11:55 AM,19.4,19.4,100,29.83,3.0,North,12.7,-,N/A,,Overcast,350,2013-02-10 17:55:00
12:15 PM,19.4,19.4,100,29.82,3.0,North,11.5,-,N/A,,Overcast,350,2013-02-10 18:15:00
12:35 PM,21.2,21.2,100,29.81,3.0,North,11.5,-,N/A,,Overcast,350,2013-02-10 18:35:00
12:55 PM,23.0,23.0,100,29.81,3.0,North,11.5,-,N/A,,Overcast,350,2013-02-10 18:55:00
1:15 PM,23.0,23.0,100,29.82,3.0,North,13.8,-,N/A,,Overcast,360,2013-02-10 19:15:00
1:35 PM,23.0,23.0,100,29.81,3.0,North,13.8,-,N/A,,Overcast,350,2013-02-10 19:35:00
1:55 PM,24.8,24.8,100,29.80,3.0,North,13.8,-,N/A,,Overcast,360,2013-02-10 19:55:00
2:15 PM,24.8,24.8,100,29.79,4.0,North,13.8,19.6,N/A,,Overcast,350,2013-02-10 20:15:00
2:35 PM,24.8,24.8,100,29.78,4.0,North,16.1,21.9,N/A,,Overcast,350,2013-02-10 20:35:00
2:55 PM,24.8,24.8,100,29.78,3.0,North,17.3,23.0,N/A,,Overcast,350,2013-02-10 20:55:00
3:15 PM,23.0,23.0,100,29.78,3.0,North,15.0,-,N/A,,Overcast,350,2013-02-10 21:15:00
3:35 PM,24.8,24.8,100,29.78,3.0,NNW,13.8,23.0,N/A,,Overcast,340,2013-02-10 21:35:00
3:55 PM,23.0,23.0,100,29.78,3.0,North,15.0,23.0,N/A,,Overcast,350,2013-02-10 21:55:00
4:15 PM,24.8,24.8,100,29.78,2.0,North,21.9,31.1,N/A,Snow,Light Snow,360,2013-02-10 22:15:00
4:35 PM,24.8,24.8,100,29.77,2.0,North,24.2,32.2,N/A,Snow,Light Snow,360,2013-02-10 22:35:00
4:55 PM,24.8,24.8,100,29.77,2.0,North,25.3,33.4,N/A,Snow,Light Snow,360,2013-02-10 22:55:00
5:15 PM,24.8,24.8,100,29.78,2.0,North,23.0,31.1,N/A,Snow,Light Snow,360,2013-02-10 23:15:00
5:35 PM,24.8,24.8,100,29.79,1.5,North,27.6,34.5,N/A,Snow,Light Snow,360,2013-02-10 23:35:00
5:55 PM,24.8,24.8,100,29.80,1.2,North,23.0,31.1,N/A,Snow,Light Snow,360,2013-02-10 23:55:00
6:15 PM,24.8,24.8,100,29.80,2.5,North,23.0,31.1,N/A,Snow,Light Snow,350,2013-02-11 00:15:00
6:35 PM,24.8,24.8,100,29.81,2.5,North,20.7,33.4,N/A,Snow,Light Snow,360,2013-02-11 00:35:00
6:55 PM,24.8,24.8,100,29.82,2.5,North,21.9,27.6,0.01,Snow,Light Snow,360,2013-02-11 00:55:00
7:15 PM,24.8,24.8,100,29.82,3.0,North,21.9,28.8,N/A,Rain,Freezing Rain,360,2013-02-11 01:15:00
7:35 PM,23.0,23.0,100,29.82,4.0,North,23.0,31.1,N/A,Rain,Freezing Rain,360,2013-02-11 01:35:00
7:55 PM,23.0,23.0,100,29.82,6.0,North,26.5,33.4,N/A,,Overcast,10,2013-02-11 01:55:00
8:15 PM,23.0,23.0,100,29.83,7.0,North,24.2,34.5,N/A,,Overcast,10,2013-02-11 02:15:00
8:35 PM,23.0,23.0,100,29.84,6.0,North,27.6,34.5,N/A,,Overcast,360,2013-02-11 02:35:00
8:55 PM,23.0,23.0,100,29.84,3.0,North,20.7,29.9,N/A,Snow,Light Snow,10,2013-02-11 02:55:00
9:15 PM,23.0,23.0,100,29.84,3.0,North,27.6,34.5,N/A,,Overcast,10,2013-02-11 03:15:00
9:35 PM,23.0,23.0,100,29.85,2.0,North,21.9,29.9,0.01,Snow,Light Snow,360,2013-02-11 03:35:00
9:55 PM,21.2,21.2,100,29.85,5.0,North,24.2,32.2,0.01,,Overcast,350,2013-02-11 03:55:00
10:15 PM,21.2,21.2,100,29.85,6.0,North,24.2,32.2,N/A,,Overcast,10,2013-02-11 04:15:00
10:35 PM,23.0,23.0,100,29.85,9.0,North,24.2,28.8,N/A,,Overcast,360,2013-02-11 04:35:00
10:55 PM,23.0,23.0,100,29.85,8.0,North,23.0,31.1,N/A,,Overcast,360,2013-02-11 04:55:00
11:15 PM,23.0,23.0,100,29.85,8.0,North,24.2,29.9,N/A,,Overcast,360,2013-02-11 05:15:00
11:35 PM,23.0,23.0,100,29.84,10.0,North,19.6,31.1,N/A,,Overcast,360,2013-02-11 05:35:00
11:55 PM,23.0,23.0,100,29.84,10.0,North,24.2,32.2,N/A,,Overcast,360,2013-02-11 05:55:00